User: anonymous
Location: Hepcat Sky Observatory
(29.9800°N, 95.6500°W)
Time: 01:10:40
(UTC-05:00)
Language:

SL-16 Debris - Orbit

View from above orbital plane
View from above orbital plane
View from above satellite
View from above satellite

Ground track
Ground track

The orbit data is extracted from the following two-line orbital elements,

1 26076U 99040E   14241.74270606  .00010430  00000-0  86482-3 0  4227
2 26076 028.4989 007.9057 4677888 184.7663 301.9638 06.21555959247789
Epoch (UTC): 29 August 2014 17:49:29
Eccentricity: 0.4677888
inclination: 28.4989°
perigee height: 272 km
apogee height: 11962 km
right ascension of ascending node: 7.9057°
argument of perigee: 184.7663°
revolutions per day: 6.21555959
mean anomaly at epoch: 301.9638°
orbit number at epoch: 24778

The dashed part of the orbit path shows where the satellite is in the earth's shadow,  

DLR